EW9138 Weather Reports


Display with metric or nautical units.
time (UTC)temp
F
wind
direction
speed
MPH
gust
MPH
rain 1hr
in
rain 24hr
in
rain mn
in
humidity
%
barometer
mb
20260505204801 53 325 0.0 2.0 0.00 0.26 0.26 96 1014.5
20260505204302 53 325 0.0 2.0 0.00 0.26 0.26 96 1014.6
20260505203802 53 325 0.0 2.0 0.00 0.26 0.26 96 1014.6
20260505203302 53 325 0.0 0.0 0.00 0.26 0.26 96 1014.6
20260505202801 53 325 0.0 0.0 0.00 0.26 0.26 96 1014.7
20260505202301 53 325 0.0 0.0 0.00 0.26 0.26 96 1014.7
20260505201301 53 325 1.0 2.0 0.00 0.26 0.26 96 1014.8
20260505200801 53 321 1.0 3.0 0.00 0.26 0.26 96 1014.8
20260505200302 53 321 0.0 3.0 0.00 0.26 0.26 96 1014.8
20260505195802 53 323 0.0 3.0 0.00 0.26 0.26 96 1014.7
20260505195305 53 323 0.0 2.0 0.00 0.26 0.26 96 1014.7
20260505194301 53 323 0.0 2.0 0.00 0.26 0.26 96 1014.6
20260505193802 53 323 0.0 2.0 0.00 0.26 0.26 96 1014.6
20260505193301 53 323 0.0 2.0 0.00 0.26 0.26 96 1014.6
20260505192803 53 323 0.0 1.0 0.00 0.26 0.26 96 1014.5
20260505192301 53 323 0.0 2.0 0.00 0.26 0.26 95 1014.5
20260505191302 53 323 0.0 2.0 0.00 0.26 0.26 95 1014.5
20260505190801 53 323 0.0 0.0 0.00 0.26 0.26 95 1014.5
20260505185802 53 323 0.0 0.0 0.00 0.26 0.26 95 1014.4
20260505185305 53 323 0.0 0.0 0.01 0.26 0.26 95 1014.4
20260505184802 53 323 0.0 0.0 0.01 0.26 0.26 95 1014.4
20260505184302 53 323 0.0 0.0 0.01 0.26 0.26 95 1014.2
20260505183801 53 323 0.0 0.0 0.01 0.26 0.26 95 1014.2
20260505183301 53 323 0.0 0.0 0.02 0.26 0.26 95 1014.2
20260505182801 53 323 0.0 1.0 0.02 0.26 0.26 95 1014.2
20260505182305 53 323 0.0 1.0 0.02 0.26 0.26 95 1014.2
20260505180802 53 322 0.0 2.0 0.03 0.26 0.26 95 1014.1
20260505180302 53 322 0.0 2.0 0.03 0.26 0.26 95 1014.1
20260505175802 53 322 0.0 2.0 0.03 0.26 0.26 95 1014.1
20260505175305 54 322 0.0 0.0 0.02 0.25 0.25 95 1014.1
20260505174801 54 322 0.0 0.0 0.02 0.25 0.25 95 1014.1
20260505174302 54 322 0.0 2.0 0.02 0.25 0.25 95 1014.1
20260505173802 54 322 0.0 2.0 0.03 0.25 0.25 95 1014.1
20260505173302 54 33 0.0 0.0 0.02 0.24 0.24 95 1014.1
20260505172801 54 33 0.0 0.0 0.02 0.24 0.24 95 1014.1
20260505172305 54 33 0.0 0.0 0.02 0.24 0.24 95 1014.1
20260505171802 54 33 0.0 0.0 0.02 0.24 0.24 95 1014.1
20260505171302 54 33 0.0 0.0 0.01 0.23 0.23 95 1014.2
20260505170802 54 33 0.0 0.0 0.01 0.23 0.23 95 1014.2
20260505170301 54 33 1.0 2.0 0.01 0.23 0.23 95 1014.2
20260505165305 54 33 0.0 3.0 0.03 0.23 0.23 95 1014.2
20260505164802 54 193 0.0 3.0 0.03 0.23 0.23 95 1014.2
20260505164302 54 213 0.0 0.0 0.03 0.23 0.23 95 1014.4
20260505163802 54 286 0.0 0.0 0.02 0.22 0.22 95 1014.4
20260505163301 54 286 0.0 0.0 0.02 0.22 0.22 95 1014.4
20260505162801 54 286 0.0 0.0 0.02 0.22 0.22 95 1014.5
20260505162301 54 286 0.0 0.0 0.02 0.22 0.22 95 1014.5
20260505161801 54 286 0.0 0.0 0.02 0.22 0.22 95 1014.5
20260505161302 55 286 0.0 0.0 0.02 0.22 0.22 95 1014.6
20260505160802 55 286 0.0 0.0 0.03 0.22 0.22 95 1014.6
20260505160302 55 286 0.0 0.0 0.03 0.22 0.22 95 1014.6
20260505153302 55 286 0.0 0.0 0.01 0.20 0.20 95 1014.6
20260505152802 54 286 0.0 0.0 0.01 0.20 0.20 95 1014.6
20260505152304 54 286 0.0 0.0 0.01 0.20 0.20 95 1014.6
20260505151801 54 286 0.0 0.0 0.01 0.20 0.20 95 1014.6
20260505151301 54 286 0.0 0.0 0.01 0.20 0.20 94 1014.6
20260505150302 54 291 0.0 0.0 0.00 0.19 0.19 94 1014.6
20260505140302 55 46 0.0 0.0 0.02 0.19 0.19 94 1014.9
20260505130302 55 268 0.0 0.0 0.02 0.17 0.17 94 1015.2
20260505124802 55 176 0.0 0.0 0.01 0.16 0.16 94 1015.2
20260505124304 56 176 0.0 0.0 0.01 0.16 0.16 94 1015.2
20260505123802 56 176 0.0 2.0 0.01 0.16 0.16 94 1015.2
20260505122802 56 207 0.0 5.0 0.00 0.15 0.15 94 1015.1
20260505122305 56 244 0.0 2.0 0.00 0.15 0.15 94 1015.1
20260505121802 56 244 0.0 2.0 0.00 0.15 0.15 94 1015.1
20260505121311 56 176 0.0 2.0 0.00 0.15 0.15 94 1015.1
20260505120802 56 175 0.0 2.0 0.00 0.15 0.15 94 1015.1
20260505120302 56 176 0.0 2.0 0.00 0.15 0.15 94 1015.1
20260505115304 56 176 0.0 2.0 0.01 0.15 0.15 94 1015.2
20260505114803 56 176 0.0 2.0 0.02 0.15 0.15 94 1015.2
20260505114301 56 176 0.0 2.0 0.02 0.15 0.15 94 1015.2
20260505113302 56 176 2.0 2.0 0.04 0.15 0.15 94 1015.2
20260505112802 56 175 2.0 3.0 0.04 0.15 0.15 94 1015.3
20260505112304 56 176 1.0 3.0 0.05 0.15 0.15 94 1015.3
20260505111303 56 194 0.0 3.0 0.06 0.15 0.15 94 1015.4
20260505110802 56 202 0.0 3.0 0.06 0.15 0.15 94 1015.4
20260505110302 56 200 0.0 3.0 0.07 0.15 0.15 94 1015.4
20260505101802 56 169 2.0 3.0 0.05 0.09 0.09 93 1015.6
20260505101303 56 201 1.0 3.0 0.06 0.09 0.09 94 1015.5
20260505100803 56 279 1.0 2.0 0.06 0.09 0.09 93 1015.5
20260505100304 56 338 0.0 3.0 0.05 0.08 0.08 93 1015.5
20260505095802 56 60 0.0 3.0 0.05 0.08 0.08 93 1015.6
20260505095304 56 93 0.0 0.0 0.03 0.06 0.06 93 1015.6
20260505094802 56 115 0.0 0.0 0.03 0.06 0.06 93 1015.6
20260505094302 56 115 0.0 0.0 0.04 0.06 0.06 93 1015.6
20260505093803 56 169 0.0 2.0 0.04 0.06 0.06 92 1015.6
20260505093304 56 212 0.0 3.0 0.05 0.06 0.06 92 1015.6
20260505092802 56 211 0.0 3.0 0.04 0.05 0.05 92 1015.5
20260505092305 56 211 2.0 2.0 0.03 0.04 0.04 92 1015.5
20260505091302 56 215 1.0 5.0 0.03 0.03 0.03 91 1015.4
20260505090302 56 15 1.0 3.0 0.03 0.03 0.03 91 1015.4
20260505085802 56 47 1.0 3.0 0.03 0.03 0.03 90 1015.6
20260505085304 57 40 2.0 3.0 0.03 0.03 0.03 89 1015.6
20260505083802 57 63 1.0 6.0 0.02 0.02 0.02 87 1015.4
20260505083303 58 65 0.0 6.0 0.01 0.01 0.01 87 1015.4
20260505082802 58 48 0.0 0.0 0.01 0.01 0.01 86 1015.2
20260505081803 58 84 0.0 0.0 0.00 0.00 0.00 84 1015.2
20260505081303 58 85 0.0 0.0 0.00 0.00 0.00 83 1015.2
20260505080803 58 85 0.0 0.0 0.00 0.00 0.00 82 1015.2
20260505080303 58 98 0.0 0.0 0.00 0.00 0.00 82 1015.2
20260505075802 58 98 0.0 0.0 0.00 0.00 0.00 80 1015.2
20260505075304 58 94 0.0 0.0 0.00 0.00 0.00 81 1015.2
20260505074803 58 94 0.0 0.0 0.00 0.00 0.00 81 1015.2
20260505073302 58 226 0.0 0.0 0.00 0.00 0.00 81 1014.9
20260505072803 58 226 0.0 0.0 0.00 0.00 0.00 80 1015.0
20260505071803 57 227 0.0 0.0 0.00 0.00 0.00 80 1015.0
20260505071302 57 210 0.0 1.0 0.00 0.00 0.00 80 1015.0
20260505070803 57 258 0.0 1.0 0.00 0.00 0.00 80 1015.0
20260505070303 57 174 0.0 1.0 0.00 0.00 0.00 81 1015.0
20260505065304 57 233 0.0 0.0 0.00 0.00 0.00 81 1015.0
20260505064802 56 4 0.0 0.0 0.00 0.00 0.00 82 1015.0
20260505064302 56 293 0.0 0.0 0.00 0.00 0.00 82 1015.1
20260505063303 56 215 0.0 0.0 0.00 0.00 0.00 84 1015.1
20260505061802 56 260 0.0 0.0 0.00 0.00 0.00 83 1015.0
20260505061303 56 244 0.0 0.0 0.00 0.00 0.00 85 1015.0
20260505060802 56 244 0.0 0.0 0.00 0.00 0.00 85 1015.0
20260505055803 56 244 0.0 0.0 0.00 0.00 0.00 83 1014.8
20260505055303 55 244 0.0 0.0 0.00 0.00 0.00 84 1014.8
20260505054803 55 272 0.0 0.0 0.00 0.00 0.00 84 1014.8
20260505054303 55 270 0.0 0.0 0.00 0.00 0.00 85 1014.7
20260505053803 55 310 0.0 0.0 0.00 0.00 0.00 86 1014.7
20260505053303 55 311 0.0 0.0 0.00 0.00 0.00 85 1014.7
20260505052803 55 286 0.0 0.0 0.00 0.00 0.00 85 1014.7
20260505052304 55 280 0.0 0.0 0.00 0.00 0.00 85 1014.7
20260505051803 55 269 0.0 0.0 0.00 0.00 0.00 84 1014.7
20260505051303 54 251 0.0 0.0 0.00 0.00 0.00 84 1014.7
20260505050803 54 266 0.0 0.0 0.00 0.00 0.00 86 1014.7
20260505050302 54 273 0.0 0.0 0.00 0.00 0.00 87 1014.7
20260505041302 54 287 0.0 0.0 0.00 0.00 0.00 87 1015.0
20260505040802 54 287 0.0 0.0 0.00 0.00 0.00 87 1015.0
20260505040304 54 287 0.0 0.0 0.00 0.00 0.00 86 1015.0
20260505035803 54 287 0.0 0.0 0.00 0.00 0.00 86 1015.0
20260505035304 54 287 0.0 0.0 0.00 0.00 0.00 86 1015.0
20260505034802 54 269 0.0 0.0 0.00 0.00 0.00 85 1015.0
20260505034303 54 218 0.0 0.0 0.00 0.00 0.00 86 1015.1
20260505033803 54 218 0.0 0.0 0.00 0.00 0.00 85 1015.1
20260505033303 54 218 0.0 0.0 0.00 0.00 0.00 84 1015.1
20260505032804 54 214 0.0 0.0 0.00 0.00 0.00 84 1015.2
20260505031802 55 278 0.0 0.0 0.00 0.00 0.00 83 1015.2
20260505031302 55 278 0.0 0.0 0.00 0.00 0.00 83 1015.3
20260505030803 54 278 0.0 0.0 0.00 0.00 0.00 82 1015.3
20260505030302 54 287 0.0 0.0 0.00 0.00 0.00 82 1015.3
20260505025804 54 297 0.0 0.0 0.00 0.00 0.00 82 1015.3
20260505025304 54 226 0.0 0.0 0.00 0.00 0.00 82 1015.3
20260505024802 54 226 0.0 0.0 0.00 0.00 0.00 81 1015.3
20260505024303 54 226 0.0 0.0 0.00 0.00 0.00 81 1015.4
20260505023303 54 226 0.0 0.0 0.00 0.00 0.00 81 1015.4
20260505022803 54 226 0.0 0.0 0.00 0.00 0.00 81 1015.4
20260505022304 54 226 0.0 0.0 0.00 0.00 0.00 82 1015.4
20260505021803 55 269 0.0 0.0 0.00 0.00 0.00 82 1015.4
20260505021303 55 269 0.0 0.0 0.00 0.00 0.00 81 1015.6
20260505020803 55 221 0.0 0.0 0.00 0.00 0.00 81 1015.6
20260505020303 55 217 0.0 0.0 0.00 0.00 0.00 81 1015.6
20260505015803 55 217 0.0 0.0 0.00 0.00 0.00 80 1015.7
20260505015304 55 217 0.0 0.0 0.00 0.00 0.00 80 1015.7
20260505014803 55 217 0.0 0.0 0.00 0.00 0.00 80 1015.7
20260505013303 55 217 0.0 0.0 0.00 0.00 0.00 77 1015.9
20260505012804 55 268 0.0 0.0 0.00 0.00 0.00 76 1016.1
20260505012304 55 262 0.0 0.0 0.00 0.00 0.00 75 1016.1
20260505011804 55 262 0.0 0.0 0.00 0.00 0.00 76 1016.1
20260505011303 55 262 0.0 0.0 0.00 0.00 0.00 75 1016.2
20260505010803 55 262 0.0 0.0 0.00 0.00 0.00 75 1016.2
20260505010303 55 262 0.0 0.0 0.00 0.00 0.00 75 1016.2
20260505005803 55 262 0.0 0.0 0.00 0.00 0.00 74 1016.3
20260505004803 56 262 0.0 0.0 0.00 0.00 0.00 73 1016.3
20260505004303 56 262 0.0 0.0 0.00 0.00 0.00 73 1016.4
20260505003803 56 262 0.0 0.0 0.00 0.00 0.00 72 1016.4
20260505002304 56 262 0.0 0.0 0.00 0.00 0.00 72 1016.6
20260505001804 56 262 0.0 0.0 0.00 0.00 0.00 71 1016.6
20260505001304 56 284 0.0 0.0 0.00 0.00 0.00 72 1016.7
20260504235304 57 283 0.0 3.0 0.00 0.00 0.00 72 1016.8
20260504234803 57 283 0.0 3.0 0.00 0.00 0.00 72 1016.8
20260504234304 57 213 0.0 0.0 0.00 0.00 0.00 71 1016.9
20260504233303 58 213 0.0 2.0 0.00 0.00 0.00 70 1016.9
20260504232804 58 350 0.0 2.0 0.00 0.00 0.00 68 1017.0
20260504232304 57 342 0.0 3.0 0.00 0.00 0.00 67 1017.0
20260504231804 57 271 0.0 3.0 0.00 0.00 0.00 67 1017.0
20260504231303 57 272 0.0 3.0 0.00 0.00 0.00 68 1017.1
20260504230804 58 272 0.0 2.0 0.00 0.00 0.00 69 1017.1
20260504225804 58 272 0.0 2.0 0.00 0.00 0.00 69 1017.2
20260504225304 58 272 1.0 2.0 0.00 0.00 0.00 69 1017.2
20260504224804 59 272 1.0 3.0 0.00 0.00 0.00 69 1017.2
20260504224304 59 313 1.0 5.0 0.00 0.00 0.00 66 1017.2
20260504223803 59 281 1.0 5.0 0.00 0.00 0.00 64 1017.2
20260504223303 59 54 0.0 2.0 0.00 0.00 0.00 65 1017.2
20260504221803 59 56 0.0 2.0 0.00 0.00 0.00 66 1017.2
20260504220850 60 296 1.0 3.0 0.00 0.00 0.00 66 1017.3
20260504220305 60 296 2.0 3.0 0.00 0.00 0.00 63 1017.3
20260504215305 60 340 2.0 5.0 0.00 0.00 0.00 63 1017.3
20260504214303 60 17 2.0 3.0 0.00 0.00 0.00 62 1017.4
20260504213804 61 309 2.0 6.0 0.00 0.00 0.00 63 1017.4
20260504213303 61 47 2.0 6.0 0.00 0.00 0.00 63 1017.4
20260504212803 61 59 2.0 6.0 0.00 0.00 0.00 63 1017.5
20260504212304 61 60 2.0 5.0 0.00 0.00 0.00 64 1017.5
20260504211804 61 29 2.0 5.0 0.00 0.00 0.00 64 1017.5
20260504211304 61 47 2.0 5.0 0.00 0.00 0.00 64 1017.5
20260504210803 61 28 2.0 5.0 0.00 0.00 0.00 66 1017.5
20260504205804 61 67 3.0 8.0 0.00 0.00 0.00 67 1017.4